パンスターズ彗星

C/2016 C1 ( PanSTARRS )

English version
Home page
Updated on May 22, 2017

---------------------------------------------------------------------

・ プロフィール

発見日 2016年2月12日
発見光度 19.9等
発見者 Pan-STARRS 1 telescope (Haleakala)

・ 写真集

・ 軌道要素

Epoch 2016 Feb. 22.0 TT = JDT 2457440.5
T 2016 Feb. 16.36074 TT                                 MPCW
q   8.4593597            (2000.0)            P               Q
z  -0.0005781      Peri.  328.56804     -0.86187002     -0.50647137
 +/-0.0000020      Node   181.78121     +0.41418138     -0.73237399
e   1.0048900      Incl.   56.17840     -0.29263264     +0.45509899
From 104 observations 2016 Feb. 12-2017 Mar. 4, mean residual 0".5.

・ 光度変化

        m1 = 4.5 + 5 logΔ + 10.0 log r

---------------------------------------------------------------------

軌道要素はM.P.E.C. 2017-E59に掲載されたものです。
光度グラフはComet for Windowsで作成したものです。

---------------------------------------------------------------------

Copyright(C) Seiichi Yoshida (comet@aerith.net). All rights reserved.